Karlovy Vary, Czech Republic

2:19 AM CEST on August 20, 2017 (GMT +0200)
Karlovy Vary

Weather History for LKKV - March, 2013

Change the Weather History Date:

Friday, March 8, 2013

  Actual Average (EDQM) Record (EDQM)
Temperature  
Mean Temperature 42 °F -  
Max Temperature 46 °F 40 °F 55 °F (1997)
Min Temperature 37 °F 29 °F 8 °F (2006)
Degree Days  
Heating Degree Days 24    
Moisture  
Dew Point 39 °F    
Average Humidity 92    
Maximum Humidity 100    
Minimum Humidity 76    
Precipitation  
Precipitation 0.00 in - - ()
Sea Level Pressure  
Sea Level Pressure 29.59 in    
Wind  
Wind Speed 4 mph ()    
Max Wind Speed 9 mph    
Max Gust Speed -    
Visibility 1.8 miles    
Events Fog , Rain    
Averages and records for this station are not official NWS values.
T = Trace of Precipitation, MM = Missing Value Source: Averaged Metar Reports

Daily Weather History Graph

Daily Weather History Graph

Search for Another Location

Airport or City:

Trip Planner

Search our weather history database for the weather conditions in past years. The results will help you decide how hot, cold, wet, or windy it might be!

Date:

Astronomy

Mar. 08, 2013 Rise Set
Actual Time 6:37 AM CET 6:01 PM CET
Civil Twilight 6:04 AM CET 6:34 PM CET
Nautical Twilight 5:27 AM CET 7:11 PM CET
Astronomical Twilight 4:49 AM CET 7:50 PM CET
Moon 4:27 AM CET (3/8) 2:21 PM CET (3/8)
Length of Visible Light 12h 29m
Length of Day
11h 24m
Waning Crescent, 14% of the Moon is Illuminated
Mar 8
Waning Crescent
Mar 11
New
Mar 19
First Quarter
Mar 27
Full
Apr 3
Last Quarter

Hourly Weather History & Observations

Time (CET) Temp. Windchill Dew Point Humidity Pressure Visibility Wind Dir Wind Speed Gust Speed Precip Events Conditions
12:00 AM 37.4 °F 34.9 °F 35.6 °F 93% 29.62 in 1.9 mi NNE 3.5 mph - N/A Rain Light Rain
1:00 AM 37.4 °F 33.8 °F 37.4 °F 100% 29.59 in 1.6 mi ESE 4.6 mph - N/A   Overcast
2:00 AM 37.4 °F - 37.4 °F 100% 29.59 in 1.1 mi ESE 2.3 mph - N/A   Overcast
3:00 AM 37.4 °F - 37.4 °F 100% 29.59 in 0.6 mi East 2.3 mph - N/A   Overcast
4:00 AM 39.2 °F 37.0 °F 37.4 °F 93% 29.59 in 1.4 mi ENE 3.5 mph - N/A   Overcast
5:00 AM 39.2 °F 35.9 °F 37.4 °F 93% 29.59 in 1.5 mi NE 4.6 mph - N/A   Overcast
6:00 AM 39.2 °F 37.0 °F 37.4 °F 93% 29.59 in 1.6 mi NE 3.5 mph - N/A   Overcast
6:31 AM 39.2 °F - 37.4 °F 93% 29.59 in 0.9 mi ENE 2.3 mph - N/A   Overcast
7:00 AM 39.2 °F - 37.4 °F 93% 29.59 in 0.6 mi Variable 1.2 mph - N/A Fog Overcast
7:16 AM 37.4 °F - 37.4 °F 100% 29.59 in 0.2 mi Variable 1.2 mph - N/A Fog Fog
7:30 AM 37.4 °F - 35.6 °F 93% 29.59 in 0.2 mi NE 2.3 mph - N/A Fog Fog
8:00 AM 37.4 °F - 37.4 °F 100% 29.59 in 0.1 mi Calm Calm - N/A Fog Fog
8:30 AM 39.2 °F - 39.2 °F 100% 29.59 in 0.1 mi Calm Calm - N/A Fog Fog
9:00 AM 41.0 °F 38.0 °F 39.2 °F 93% 29.59 in 1.1 mi Variable 4.6 mph - N/A Fog Mostly Cloudy
9:13 AM 41.0 °F 37.1 °F 41.0 °F 100% 29.59 in 2.5 mi ESE 5.8 mph - N/A Fog Mostly Cloudy
9:30 AM 42.8 °F 39.3 °F 41.0 °F 93% 29.59 in 2.5 mi ESE 5.8 mph - N/A Fog Mostly Cloudy
10:00 AM 42.8 °F 39.3 °F 39.2 °F 87% 29.59 in 2.5 mi East 5.8 mph - N/A   Mostly Cloudy
10:30 AM 42.8 °F 38.6 °F 39.2 °F 87% 29.59 in 2.5 mi East 6.9 mph - N/A   Mostly Cloudy
11:00 AM 42.8 °F 38.0 °F 39.2 °F 87% 29.59 in 2.5 mi East 8.1 mph - N/A   Mostly Cloudy
11:30 AM 44.6 °F 39.7 °F 39.2 °F 81% 29.59 in 3.1 mi East 9.2 mph - N/A   Mostly Cloudy
12:00 PM 44.6 °F 39.7 °F 39.2 °F 81% 29.59 in 5.0 mi East 9.2 mph - N/A   Mostly Cloudy
12:30 PM 44.6 °F 41.4 °F 41.0 °F 87% 29.59 in 3.1 mi East 5.8 mph - N/A   Mostly Cloudy
1:00 PM 44.6 °F 40.2 °F 41.0 °F 87% 29.59 in 4.3 mi East 8.1 mph - N/A   Scattered Clouds
1:30 PM 44.6 °F 43.1 °F 41.0 °F 87% 29.59 in 3.7 mi ENE 3.5 mph - N/A   Mostly Cloudy
2:00 PM 46.4 °F 44.3 °F 41.0 °F 81% 29.56 in 3.7 mi ENE 4.6 mph - N/A   Mostly Cloudy
2:30 PM 46.4 °F 42.9 °F 39.2 °F 76% 29.56 in 5.6 mi ESE 6.9 mph - N/A   Mostly Cloudy
3:00 PM 46.4 °F 41.9 °F 41.0 °F 81% 29.59 in 4.3 mi ESE 9.2 mph - N/A   Scattered Clouds
3:30 PM 44.6 °F 39.7 °F 39.2 °F 81% 29.59 in 4.3 mi East 9.2 mph - N/A   Scattered Clouds
4:00 PM 44.6 °F 40.2 °F 41.0 °F 87% 29.59 in 4.3 mi East 8.1 mph - N/A   Scattered Clouds
4:30 PM 42.8 °F 38.0 °F 41.0 °F 93% 29.59 in 1.9 mi ENE 8.1 mph - N/A   Mostly Cloudy
5:00 PM 42.8 °F 41.1 °F 39.2 °F 87% 29.59 in 1.2 mi ENE 3.5 mph - N/A   Mostly Cloudy
5:17 PM 41.0 °F 39.0 °F 39.2 °F 93% 29.59 in 0.9 mi NE 3.5 mph - N/A   Mostly Cloudy
5:30 PM 41.0 °F 39.0 °F 39.2 °F 93% 29.59 in 0.7 mi NNE 3.5 mph - N/A   Mostly Cloudy
6:00 PM 41.0 °F 39.0 °F 39.2 °F 93% 29.59 in 0.3 mi NNE 3.5 mph - N/A Fog Fog
6:30 PM 41.0 °F 39.0 °F 39.2 °F 93% 29.59 in 0.2 mi NE 3.5 mph - N/A Fog Fog
7:00 PM 41.0 °F 39.0 °F 39.2 °F 93% 29.59 in 0.2 mi East 3.5 mph - N/A Fog Fog
7:30 PM 39.2 °F 37.0 °F 39.2 °F 100% 29.59 in 0.2 mi ENE 3.5 mph - N/A Fog Fog
8:00 PM 39.2 °F 35.9 °F 39.2 °F 100% 29.59 in 0.2 mi NE 4.6 mph - N/A Fog Fog
9:00 PM 39.2 °F 35.9 °F 39.2 °F 100% 29.59 in 0.2 mi NNE 4.6 mph - N/A Fog Light Drizzle
10:00 PM 39.2 °F 37.0 °F 37.4 °F 93% 29.62 in 0.2 mi NE 3.5 mph - N/A Fog Light Drizzle
11:00 PM 37.4 °F 33.8 °F 37.4 °F 100% 29.62 in 0.2 mi NNE 4.6 mph - N/A Fog Light Drizzle